Location: Byszew
(52.1813°N, 19.2693°E)
Time: 09:51:19
(UTC+00:00)

SPROUT - Pass Details

Date: 09 July 2022
Orbit: 588 x 598 km, 97.9° (Epoch: 17 August)

Event Time Altitude Azimuth Distance (km) Brightness Sun altitude
Exits shadow 22:31:32 14° 124° (SE) 1,682 ? -15.5°
Maximum altitude 22:34:36 33° 65° (ENE) 1,010 ? -15.5°
Drops below altitude 10° 22:38:22 10° 2° (N) 1,936 ? -15.5°
Sets 22:40:42 0° 353° (N) 2,845 ? -15.5°
